sat.trackr.live / text

‹ back to catalog

STARLINK-4674

NORAD 53591 · 2022-104D

PAYLOAD ACTIVE UNKNOWN

§ Identity

Operator
Country
US
Launch date
2022-08-28
Launch site
AFETR
Launch vehicle
Mass (kg)
RCS (m²)

Purposes: comms

External: N2YO · Heavens-Above · Gunter

§ Orbital elements

Epoch: 2026-09-20T03:18:04.917024Z

Period
93.79 min
Inclination
53.1591°
Eccentricity
0.0000852
Mean motion
15.35401381 rev/d
Perigee alt
459.1 km
Apogee alt
460.3 km
Semi-major
6,837.9 km
B*
1.2577e-4
RAAN
77.6607°
Arg perigee
87.3036°
Mean anomaly
272.8064°
Rev number
22,550

§ Raw data

STARLINK-46741 53591U 22104D   26263.13755691  .00004009  00000+0  12577-3 0  99952 53591  53.1591  77.6607 0000852  87.3036 272.8064 15.35401381225508

JSON: /api/v1/satellites/53591 · /tle

For live sub-satellite position, see the globe view (requires WebGL).

§ Visibility from observer

Set your observer location to see the next 7 days of passes ≥ 10°. The values pass through the URL so the page stays shareable.

No JS? Fill the form by hand. The geolocation button needs JavaScript.